RH
24 70 78 64 97 99 99 97 94 82 60 74 76 65 92 83 61 63 64 67 67 66 59 58 58 62 65 67 71 79 84 84 96 91 90 90 90 86 79 72 67 57 55 71
26 29 25 29 34 41 46 68 78 62 53 57 63 79 95 90 91 81 73 75 72 72 68 63 63 66 70 71 78 79 83 85 87 91 84 85 84 79 80 82 70 56 54 68
36 26 22 24 31 36 52 62 51 64 41 38 54 84 93 94 71 64 74 75 72 74 76 73 71 71 71 78 83 81 84 84 86 88 88 85 80 81 86 85 86 64 49 60
30 23 24 29 38 64 72 35 35 39 59 87 59 86 91 91 76 76 81 83 84 83 77 75 78 78 74 78 80 81 80 84 82 87 92 85 82 78 83 82 82 64 52 50
34 28 29 43 49 26 43 30 37 37 47 52 52 68 93 69 84 86 89 88 89 89 86 82 78 75 74 77 82 82 79 80 82 88 94 88 79 72 80 82 78 74 63 57
33 23 25 32 30 24 24 37 31 32 42 70 43 46 94 83 91 73 76 85 87 90 88 77 71 69 74 78 81 82 81 80 81 86 91 94 86 75 77 78 75 71 64 58
38 28 22 26 36 28 34 50 72 67 69 72 77 76 100 88 88 92 91 85 88 83 87 85 86 84 80 83 85 82 83 84 82 85 91 93 92 80 70 72 71 65 59 56
68 63 36 32 38 47 38 45 80 96 86 69 69 96 97 95 92 91 85 83 77 82 83 85 88 88 88 85 86 88 89 89 85 86 90 92 93 98 76 67 64 59 55 54
84 66 41 32 25 29 53 55 63 89 70 79 92 97 88 76 80 79 82 76 86 88 91 92 87 86 90 91 91 93 92 90 88 89 90 91 94 96 97 94 65 64 60 61
74 83 43 34 35 41 59 76 83 74 96 83 96 94 91 82 87 82 89 92 90 84 84 87 90 91 89 92 93 89 92 94 94 93 91 92 94 96 97 96 92 82 66 61
50 76 63 40 58 64 69 90 85 89 87 94 98 100 97 97 94 94 92 89 93 92 91 91 90 92 92 90 92 92 93 94 94 94 94 95 95 95 96 99 98 92 78 63
64 98 93 84 57 52 49 78 86 100 91 91 95 100 96 95 91 85 89 88 90 93 94 91 92 86 89 91 92 93 93 94 94 94 95 95 96 96 97 98 99 98 92 81
95 86 93 78 92 51 61 59 70 81 96 98 100 100 91 90 94 92 93 89 90 90 91 90 89 91 91 92 93 93 93 94 94 94 94 94 95 96 98 98 100 98 98 93
67 96 96 96 93 87 88 63 56 73 98 99 100 100 94 92 96 95 94 89 86 85 88 91 91 90 93 93 93 93 92 93 94 94 94 94 95 96 97 99 99 99 100 99
81 99 87 87 81 74 77 70 70 82 82 98 96 97 100 100 100 100 95 88 84 85 85 86 92 92 90 92 92 92 92 93 94 93 93 94 94 95 96 97 99 99 99 100
81 97 89 96 76 69 90 77 78 78 81 89 92 100 96 92 90 95 96 89 86 86 81 79 84 80 88 90 92 93 93 93 94 93 94 94 93 94 95 96 98 98 98 99
94 97 100 98 78 85 100 99 84 78 88 98 99 97 94 96 92 100 99 95 93 85 80 80 86 88 88 89 90 94 94 93 93 94 93 94 94 94 94 96 96 97 98 99
96 100 99 99 98 100 89 81 83 92 87 88 92 94 95 98 91 98 98 98 92 83 82 85 89 91 88 87 86 85 92 94 94 94 94 93 94 94 94 94 95 96 98 98
89 100 100 100 100 96 89 86 95 99 92 89 94 93 90 91 95 100 89 88 89 90 89 90 90 92 88 87 85 84 86 86 91 94 94 93 94 94 94 94 95 96 96 97
77 94 96 90 99 100 84 86 88 89 98 91 90 94 96 94 100 100 92 88 87 88 90 87 89 90 86 85 83 84 86 86 85 87 94 94 94 94 94 95 95 96 96 97
82 83 83 91 93 95 84 89 90 79 79 84 84 91 94 99 94 93 92 91 90 90 87 86 86 93 89 87 83 84 85 88 85 83 81 88 93 95 95 95 94 95 96 96
86 90 89 87 78 69 70 92 89 84 92 89 90 91 93 93 92 91 89 90 90 90 88 85 90 89 84 84 84 87 86 82 82 83 83 84 87 93 93 95 94 94 95 95
88 84 86 81 81 90 86 77 88 91 87 86 88 88 88 93 90 87 89 90 90 89 90 88 91 86 78 81 82 89 85 82 85 85 86 84 82 88 91 94 94 92 94 94
99 95 91 74 79 86 83 90 88 87 86 82 77 84 84 87 83 84 86 88 87 86 85 80 81 84 75 67 48 75 74 88 88 89 89 84 88 86 84 85 89 93 93 94
93 91 86 87 78 82 86 83 81 77 70 66 60 62 65 72 69 74 84 80 80 67 62 55 60 64 59 58 61 69 69 90 92 90 89 86 87 88 87 84 92 95 94 93
76 72 82 86 75 62 67 79 80 81 73 64 70 68 54 57 62 64 72 72 71 83 62 62 61 58 71 68 68 67 83 94 99 97 85 93 93 89 87 88 86 76 82 87
Wind_Speed
7 4 8 13 1 0 8 9 15 13 15 8 10 13 19 19 25 23 22 21 21 21 21 22 23 23 22 22 23 20 19 19 15 8 7 6 7 5 6 8 12 11 10 12
10 8 12 13 12 14 16 12 13 14 13 8 9 14 19 21 21 21 22 22 23 23 23 23 23 24 24 22 23 22 20 18 15 11 8 5 5 3 3 6 10 11 12 12
9 9 15 17 16 17 11 10 13 10 12 10 14 6 11 14 21 21 21 20 21 23 24 25 26 25 24 24 23 21 21 19 16 15 8 5 7 3 3 5 4 8 13 12
7 14 14 13 9 11 9 16 18 15 10 4 8 3 10 13 19 21 20 20 20 22 21 21 22 23 22 22 21 21 19 20 16 16 16 13 11 10 4 5 5 8 11 11
10 18 13 9 11 14 10 15 14 16 14 11 11 9 7 12 14 20 18 18 19 19 20 21 22 20 20 20 20 19 20 20 20 18 17 11 13 9 6 4 9 7 7 8
18 16 7 7 18 17 18 13 18 16 12 11 17 15 8 8 11 17 18 19 20 19 19 19 19 19 20 20 20 20 22 20 20 19 19 15 13 14 11 9 8 7 7 6
14 15 14 8 19 12 12 12 7 5 5 4 10 11 3 11 14 15 15 17 18 19 19 20 22 22 23 24 23 20 23 22 22 20 18 17 13 12 18 16 12 11 8 7
9 12 12 22 18 10 13 11 5 5 6 11 9 5 4 10 10 11 12 14 17 19 18 20 21 20 20 23 23 22 22 22 23 21 20 16 16 7 9 14 14 11 11 10
6 7 25 19 10 11 9 9 11 3 6 7 6 4 5 10 14 14 15 17 17 19 19 19 21 20 21 21 22 21 21 21 21 22 17 16 14 15 1 1 9 12 12 9
4 14 10 14 14 4 5 6 6 5 5 6 5 5 4 13 14 14 14 15 15 16 18 18 18 20 19 19 18 20 20 20 20 21 18 14 15 14 10 3 5 6 9 13
9 5 10 13 9 11 7 6 6 3 4 3 3 3 5 8 9 11 12 13 14 15 16 16 16 17 18 18 19 19 20 21 20 20 19 18 15 14 11 6 5 3 4 10
6 4 5 2 9 15 15 5 5 2 7 3 4 1 4 5 8 10 11 13 13 12 13 15 15 17 18 20 20 20 19 20 19 18 18 19 17 14 12 9 7 5 6 5
8 3 5 3 4 5 7 11 8 6 3 3 2 1 3 4 5 5 8 11 10 12 14 14 15 16 17 18 19 19 19 20 19 18 18 18 19 17 14 11 9 5 6 9
8 2 3 3 3 6 4 11 13 5 3 7 2 2 6 7 7 7 7 9 10 12 13 14 15 16 16 17 18 19 19 19 19 18 17 19 20 18 14 11 7 8 8 9
5 3 3 4 5 9 7 8 10 9 7 2 4 3 3 4 4 4 4 9 11 12 14 15 14 16 16 17 18 18 18 18 18 18 18 18 18 18 16 15 11 9 8 8
8 4 2 4 7 5 4 9 4 5 6 3 5 2 3 5 5 4 4 9 11 12 13 13 15 16 16 17 17 17 18 18 16 17 17 17 17 17 16 15 13 9 7 11
4 2 2 1 7 4 1 3 5 6 2 2 2 5 4 5 5 2 3 6 8 11 12 13 13 13 14 14 15 16 15 15 16 16 17 18 18 17 18 17 15 13 12 11
2 2 3 2 2 1 3 4 4 6 6 3 4 3 4 3 8 3 2 3 7 9 11 11 10 11 12 12 14 14 14 14 15 16 17 18 18 16 16 16 16 16 10 9
5 0 3 2 2 1 2 1 1 4 6 6 3 5 5 5 5 2 2 3 5 5 6 7 8 7 9 11 14 13 14 14 15 16 16 16 16 15 16 15 15 13 11 11
5 3 5 5 2 1 5 3 5 5 5 5 5 5 3 5 3 2 2 2 5 5 4 7 7 6 7 8 10 12 13 13 15 15 15 15 15 14 15 14 14 12 10 10
5 5 3 4 1 5 4 5 5 7 8 2 2 4 3 3 6 6 4 5 3 3 5 6 6 5 6 5 6 8 10 13 13 14 13 14 14 14 14 12 10 11 10 10
3 2 2 3 4 6 7 3 6 7 3 5 4 5 5 6 5 5 6 5 4 5 4 5 5 5 6 4 4 6 8 10 12 13 13 14 14 11 11 12 12 12 12 11
2 7 4 7 7 5 7 8 5 6 6 4 4 5 4 4 5 6 5 5 5 4 4 4 3 6 5 4 3 4 5 8 10 11 12 13 13 11 12 11 11 8 10 9
2 2 3 5 5 7 9 5 5 6 8 6 5 5 6 6 7 7 6 4 4 3 4 3 3 4 4 4 8 6 6 5 8 10 10 10 11 12 11 9 9 7 7 6
4 6 5 7 8 5 5 8 6 7 9 9 8 8 8 7 8 6 4 4 4 3 3 4 5 4 4 5 6 5 6 6 7 8 7 9 7 8 9 9 8 6 7 9
8 9 6 6 8 7 7 4 5 7 9 8 7 7 9 9 8 6 6 4 3 3 3 5 5 3 5 6 5 6 4 4 4 7 7 7 5 7 7 7 8 14 17 17
Wind_Direction
320 305 277 282 87 231 301 310 316 325 307 322 302 289 42 38 43 34 26 23 19 18 7 9 3 1 2 5 2 2 346 338 335 158 165 153 166 170 155 148 144 141 137 136
357 294 10 346 320 309 301 302 305 302 354 345 309 55 63 50 49 39 26 20 14 9 9 7 5 3 3 2 356 353 349 340 333 317 166 157 159 153 138 129 150 148 143 141
314 323 354 342 327 310 325 324 333 325 314 283 265 143 47 59 42 36 34 21 19 12 5 3 2 3 360 359 355 348 342 336 328 325 287 147 138 127 106 142 141 144 145 149
309 358 343 322 330 20 336 321 306 311 323 308 11 279 53 29 30 28 25 20 15 9 6 6 2 359 359 353 348 347 344 340 335 331 323 180 166 169 166 155 142 147 147 150
346 340 320 355 322 337 292 331 319 288 274 273 268 274 16 42 15 15 15 14 11 11 6 3 0 356 355 355 352 348 348 343 342 337 335 233 170 169 146 148 146 146 148 141
337 309 344 348 356 320 317 338 311 289 267 258 247 245 47 28 8 7 10 8 8 3 4 1 356 357 357 357 357 353 352 349 347 340 338 319 186 163 159 158 161 157 151 149
327 337 332 37 333 316 337 332 310 289 282 309 35 53 47 38 29 20 10 3 3 3 3 0 359 359 356 358 355 355 353 350 346 347 340 335 308 195 173 167 165 160 159 160
349 328 11 333 305 304 315 286 279 293 329 302 22 77 69 57 30 31 19 10 7 6 3 0 357 358 357 353 354 354 353 349 348 347 346 337 331 295 194 184 167 165 171 169
304 301 315 307 309 323 323 293 305 253 278 283 118 97 132 44 21 18 15 14 9 4 1 1 355 357 356 355 352 352 351 350 349 346 348 344 342 332 332 283 186 173 159 157
296 304 294 301 335 8 282 12 4 8 314 325 118 130 33 11 6 9 9 12 3 3 3 358 357 355 353 353 349 352 353 353 349 348 347 349 344 335 334 88 128 178 170 154
316 241 293 319 19 357 12 23 349 268 217 257 300 100 37 28 13 3 5 5 3 4 359 354 353 353 353 353 352 352 355 353 354 352 347 349 352 349 355 356 87 129 129 172
6 300 286 42 117 87 68 24 11 331 333 312 208 140 35 45 28 12 2 357 360 5 356 354 352 353 358 354 350 350 354 353 351 353 352 351 354 356 4 357 21 106 134 105
354 323 318 203 170 64 50 21 354 291 220 274 308 131 120 50 20 5 4 355 356 358 355 356 357 356 356 352 348 346 355 351 349 353 356 356 357 358 357 358 17 46 117 129
347 341 30 330 357 324 17 18 6 344 1 329 48 142 11 359 354 348 354 351 355 358 359 355 358 352 352 352 347 348 352 351 348 351 359 2 357 352 354 1 7 44 57 92
44 301 87 85 67 70 64 27 25 36 5 49 5 84 305 316 310 299 336 341 352 359 359 358 358 348 350 350 347 349 348 350 348 351 1 2 352 359 351 1 13 32 56 81
346 308 123 206 151 119 80 24 20 50 350 16 340 205 218 297 328 9 354 343 347 354 349 355 351 348 348 348 347 343 345 347 346 353 358 355 360 3 355 4 6 22 45 69
12 323 242 87 177 201 199 329 354 321 106 260 300 243 332 323 321 299 353 342 338 343 344 348 345 344 337 343 342 344 338 341 353 354 355 358 357 3 360 3 3 13 25 48
358 357 276 119 112 286 231 199 234 269 235 222 296 316 290 285 306 128 62 324 328 341 336 336 332 336 336 335 342 336 343 350 356 357 357 355 354 360 2 4 4 10 15 28
139 226 329 109 81 123 266 324 32 94 290 173 226 295 292 316 304 225 56 333 315 325 325 318 312 324 332 337 340 347 348 353 360 356 352 350 348 353 1 5 2 2 12 24
1 143 109 358 11 321 227 127 119 84 301 199 192 247 283 345 351 223 256 300 310 316 312 320 317 317 334 338 340 348 347 353 357 351 344 342 346 350 360 359 2 0 6 20
336 352 105 341 331 291 190 123 88 63 251 172 188 232 248 229 210 250 318 303 263 279 305 304 318 311 306 312 339 359 344 355 346 340 343 347 348 350 353 355 3 4 9 21
178 101 329 342 34 317 147 108 142 214 238 194 225 240 243 244 272 272 275 284 291 278 285 298 300 308 306 311 340 358 352 352 344 342 344 349 350 354 350 357 4 8 11 22
349 185 204 168 222 221 202 198 214 171 200 239 200 230 216 250 263 258 258 273 267 264 259 266 271 290 313 331 348 353 328 2 347 343 346 350 347 0 352 358 2 14 15 16
271 144 187 33 283 232 223 256 218 210 222 232 240 211 211 242 252 259 254 257 270 277 276 249 310 316 316 347 350 334 359 19 354 345 341 350 344 3 352 356 350 357 1 9
187 122 202 259 276 286 259 217 214 221 223 235 234 230 232 238 257 255 248 248 243 263 288 323 298 306 336 351 335 341 358 17 355 342 339 341 343 354 343 351 343 342 347 8
178 188 163 231 209 174 244 217 192 215 234 240 232 246 242 242 251 248 250 239 228 231 258 268 262 347 338 324 328 332 356 47 1 337 342 331 353 342 343 341 337 358 3 5